Tracking 31027 objects as of 19-Jul-2025
HD Live streaming from Space Station
objects crossing your sky now

FENGYUN 1C DEB

Track FENGYUN 1C DEB now!
10-day predictions


NORAD ID: 30342
Int'l Code: 1999-025ABD
Perigee: 847.3 km
Apogee: 1,096.4 km
Inclination: 100.2 °
Period: 104.4 minutes
Semi major axis: 7342 km
RCS: 0.0538 m2 (small)
Launch date: May 10, 1999
Source: People's Republic of China (PRC)
Launch site: Taiyaun Space Center, China (TSC)

Note: This is SATELLITE DEBRIS
Your satellite tracking list
COSMOS 830
Track 1 satellite(s)




NASA's NSSDC Master Catalog

Two Line Element Set (TLE):
1 30342U 99025ABD 25199.42933399  .00000575  00000-0  54202-3 0  9998
2 30342 100.1909   7.5754 0169624 140.8083 275.7384 13.79760090928573
Source of the keplerian elements: AFSPC